This is the latest recevied weather packets stored in our database for station/object N1LJK-13. If no packets are shown the sender has not sent any weather packets the latest 1 day(s).
| Time | Temp. | Humidity | Pressure | Rain* | Wind** | Luminosity | Snow |
|---|---|---|---|---|---|---|---|
| 1778019931 | 13.89° C | 98% | 1006.8 hPa | 0 mm | 3.58 m/s, 248° | - | - |
| 1778018731 | 13.33° C | 98% | 1006.9 hPa | 0 mm | 4.02 m/s, 254° | - | - |
| 1778017531 | 13.89° C | 98% | 1007.1 hPa | 0 mm | 4.92 m/s, 235° | - | - |
| 1778016331 | 14.44° C | 98% | 1007 hPa | 0 mm | 4.47 m/s, 221° | - | - |
| 1778015131 | 15° C | 98% | 1006.9 hPa | 0 mm | 5.36 m/s, 241° | - | - |
| 1778013932 | 15° C | 98% | 1006.9 hPa | 0 mm | 5.36 m/s, 261° | - | - |
| 1778012731 | 15° C | 98% | 1007.2 hPa | 0 mm | 4.47 m/s, 236° | - | - |
| 1778011532 | 16.11° C | 98% | 1007.4 hPa | 0 mm | 4.02 m/s, 220° | - | - |
| 1778010331 | 16.67° C | 98% | 1007.8 hPa | 0 mm | 2.24 m/s, 230° | - | - |
| 1778009131 | 16.67° C | 98% | 1008.2 hPa | 0 mm | 3.13 m/s, 240° | - | - |
| 1778007936 | 17.78° C | 98% | 1008.2 hPa | 0 mm | 3.13 m/s, 246° | - | - |
| 1778005531 | 17.78° C | 98% | 1008.4 hPa | 0 mm | 3.58 m/s, 254° | - | - |
| 1778004331 | 17.78° C | 98% | 1008.7 hPa | 0 mm | 4.02 m/s, 234° | - | - |
| 1778003131 | 18.33° C | 98% | 1009.4 hPa | 0 mm | 4.02 m/s, 238° | - | - |
| 1778001931 | 17.22° C | 98% | 1009.1 hPa | 0 mm | 4.47 m/s, 232° | - | - |
| 1778000732 | 17.22° C | 98% | 1009.5 hPa | 0 mm | 2.68 m/s, 231° | - | - |
| 1777999531 | 17.78° C | 98% | 1009.7 hPa | 0 mm | 3.13 m/s, 234° | - | - |
| 1777997131 | 19.44° C | 98% | 1010.2 hPa | 0 mm | 2.24 m/s, 257° | - | - |
| 1777995931 | 15.56° C | 98% | 1011 hPa | 0 mm | 3.13 m/s, 229° | - | - |
| 1777994733 | 14.44° C | 98% | 1010.8 hPa | 0 mm | 3.58 m/s, 246° | - | - |
| 1777993531 | 13.89° C | 98% | 1010.6 hPa | 0 mm | 2.24 m/s, 231° | - | - |
| 1777992331 | 16.11° C | 98% | 1010.3 hPa | 0 mm | 3.58 m/s, 231° | - | - |
| 1777991131 | 16.11° C | 98% | 1010.7 hPa | 0 mm | 3.58 m/s, 236° | - | - |
| 1777989931 | 15° C | 98% | 1011 hPa | 0 mm | 4.02 m/s, 218° | - | - |
| 1777987531 | 15.56° C | 98% | 1010.6 hPa | 0 mm | 3.13 m/s, 239° | - | - |
* Rain latest hour (hover to see other rain measurements)
** Current wind speed in m/s (hover to see current wind gust speed)